SCP
1 1 1 1 1 0 0 0 0 0 0 0 0 1 1 1 1 1 1 2 3 3 2 2 2 1 1 1 1 1 1 1 1 1 1 1 1 1 1 1 1 1 1 1 1 1 1 1 1
1 1 1 1 0 0 0 0 0 0 0 0 0 1 1 1 1 1 1 3 3 3 3 3 2 1 1 1 1 1 1 1 1 1 1 1 1 1 1 1 1 1 1 1 1 1 1 1 1
1 1 1 0 0 0 0 0 0 0 0 0 1 1 1 1 1 1 2 3 4 4 4 3 2 1 1 1 1 1 2 1 1 1 1 1 1 1 1 1 1 1 1 1 1 1 1 1 1
1 1 0 0 0 0 0 0 0 0 0 0 1 1 1 1 1 1 2 4 5 5 3 2 2 1 1 1 2 2 2 1 1 1 1 1 1 1 1 1 1 1 1 1 1 1 1 1 1
1 0 0 0 0 0 0 0 0 0 0 0 1 1 1 1 1 2 3 4 4 3 3 2 2 2 2 2 2 2 2 2 1 1 1 1 1 1 1 1 1 1 1 1 1 1 1 1 1
0 0 0 0 0 0 0 0 0 0 0 0 1 2 2 1 2 2 3 4 3 2 3 3 3 3 3 3 2 2 2 2 2 2 2 2 2 1 1 1 1 1 1 1 1 1 1 1 1
0 0 0 0 0 0 0 0 0 0 0 0 1 1 2 2 2 3 3 3 2 2 3 3 3 3 3 3 3 3 3 3 3 2 2 2 2 2 1 1 1 1 1 1 1 1 1 1 1
0 0 0 0 0 0 0 0 0 0 0 1 1 1 2 2 2 3 3 3 2 2 3 3 3 3 3 4 4 5 5 4 3 2 2 2 2 2 1 1 1 1 1 1 1 1 1 1 1
0 0 0 0 0 0 0 0 0 0 1 1 1 2 2 2 2 2 3 2 2 2 3 4 4 3 4 4 5 5 5 3 2 2 2 2 2 2 1 1 1 1 1 1 1 1 1 1 1
0 0 0 0 0 0 0 0 0 0 1 1 1 2 2 2 2 2 2 2 2 3 3 4 5 5 4 5 6 6 4 3 2 2 2 2 2 2 2 1 1 1 1 1 1 1 1 1 1
0 0 0 0 0 0 0 0 0 0 1 1 1 2 2 2 2 2 2 2 3 3 3 5 6 6 6 6 7 6 4 3 3 2 3 3 3 2 2 2 2 1 1 1 1 1 1 1 1
0 0 0 0 0 0 0 0 0 0 1 1 1 1 2 2 2 2 3 3 3 3 4 6 8 8 7 6 6 6 5 4 3 2 3 3 3 3 2 2 2 1 1 1 1 1 1 1 1
0 0 0 0 0 0 0 0 0 1 1 1 1 1 1 2 2 3 3 4 5 7 8 8 9 9 7 6 5 5 6 5 4 3 3 3 3 3 3 3 2 2 1 1 1 1 1 1 1
0 0 0 0 0 0 0 0 0 1 1 1 1 1 2 3 5 7 7 8 10 13 14 11 10 9 8 6 5 5 6 5 4 4 3 3 3 3 3 3 2 2 2 2 1 1 1 1 1
0 0 0 0 0 0 0 0 0 1 1 1 1 2 4 8 11 13 13 14 15 16 15 12 9 9 8 8 6 5 5 5 4 4 4 3 3 3 3 3 2 2 2 2 2 2 1 1 1
0 0 0 0 0 0 0 0 1 1 2 1 1 3 7 11 14 15 14 14 14 13 12 10 8 9 9 9 7 6 5 5 5 5 5 4 3 3 3 2 2 2 2 2 2 2 1 1 1
0 0 0 0 0 0 0 1 1 2 2 2 3 6 9 10 11 11 10 11 11 10 9 9 9 10 10 9 8 7 6 5 5 5 5 5 4 3 3 3 2 3 2 2 2 2 2 2 2
0 0 0 0 0 0 0 1 2 2 3 4 7 9 9 7 7 8 9 10 10 9 9 10 10 11 11 9 8 7 6 6 6 6 7 6 5 4 4 3 3 3 3 3 2 2 2 2 2
0 0 0 0 0 0 1 2 4 6 7 9 10 9 8 7 6 8 10 10 10 10 10 11 11 12 11 10 9 7 7 6 7 7 8 8 7 5 5 4 4 4 3 3 3 3 2 2 3
0 0 0 0 0 1 1 4 8 11 11 10 9 7 7 7 7 8 10 10 10 10 11 12 12 12 12 12 10 8 7 6 7 7 8 8 7 6 6 5 5 4 4 4 4 3 3 3 3
0 0 0 0 1 1 1 4 8 10 8 6 5 5 5 6 7 7 8 10 11 11 12 13 14 14 13 12 11 9 7 7 6 6 7 8 8 7 7 6 6 5 4 4 4 3 3 3 3
0 0 0 0 1 1 1 3 5 5 3 2 3 3 4 5 5 6 7 9 10 10 12 14 16 16 15 13 11 9 8 7 6 6 6 7 8 7 7 7 6 5 5 4 4 3 3 2 2
0 0 0 0 0 1 1 2 4 3 2 2 2 3 4 5 5 5 6 7 7 8 11 14 17 17 14 12 10 9 8 7 7 6 6 6 6 6 6 6 6 6 5 5 4 4 3 2 2
0 0 0 0 0 0 1 2 4 4 3 2 2 3 5 6 5 5 5 5 5 6 9 13 16 16 14 11 10 9 8 7 7 6 6 6 5 5 5 5 5 6 6 6 5 4 4 3 2
0 0 0 0 0 0 1 2 4 4 3 2 2 4 6 6 5 5 4 5 5 5 8 12 15 15 13 11 10 10 9 7 6 6 6 6 6 5 5 5 5 5 6 6 6 5 4 3 3
0 0 0 0 0 0 1 2 3 3 2 2 3 4 5 6 5 4 3 3 4 5 7 11 14 15 12 10 10 10 9 7 6 6 6 6 6 6 5 5 4 4 5 5 5 4 3 3 3
0 0 0 0 0 0 1 2 2 2 2 3 4 5 5 5 5 4 3 3 4 5 6 10 14 15 13 11 10 9 8 6 5 6 6 6 7 7 6 5 4 4 4 4 4 3 3 3 3
0 0 0 0 0 0 1 2 2 3 3 3 3 4 4 5 6 5 4 4 4 5 6 9 13 14 13 11 9 8 7 5 5 5 6 6 6 7 7 6 5 4 4 4 3 3 3 2 2
0 0 1 1 1 0 1 2 3 3 3 3 3 3 3 4 5 5 4 4 4 4 6 9 11 12 11 9 7 6 5 4 4 4 5 5 6 7 7 6 5 4 4 3 3 3 2 2 2
0 0 1 1 1 0 1 2 3 3 3 2 2 3 4 4 4 4 3 4 4 4 6 8 11 11 9 7 5 5 4 4 3 4 4 5 6 7 7 6 5 4 4 3 3 2 2 2 2
Wind_Speed
8 10 9 7 7 5 1 3 8 9 10 10 10 9 14 14 11 9 8 13 16 17 15 14 13 12 11 11 10 10 9 9 9 9 9 10 10 10 10 11 11 12 13 13 14 14 13 13 12
9 11 9 7 6 2 2 6 9 9 8 8 9 10 13 13 12 11 10 13 16 16 14 13 13 12 11 10 9 9 9 9 8 8 9 9 9 9 10 10 10 11 12 12 13 12 12 12 10
12 14 8 7 6 3 3 7 8 7 5 7 9 11 11 10 11 11 12 14 15 15 14 14 14 12 11 10 9 9 9 8 8 8 8 8 8 9 9 9 10 10 10 11 11 11 10 10 9
9 8 7 7 4 1 5 6 6 4 6 7 8 9 10 9 10 12 13 14 15 16 15 14 14 12 11 10 9 9 8 8 8 8 8 8 8 8 8 9 9 9 10 10 10 10 9 8 7
9 8 9 7 2 1 4 5 5 2 5 8 9 10 11 12 14 14 12 13 14 15 15 14 13 13 11 10 9 9 8 8 7 7 8 7 7 7 7 8 9 9 9 10 9 9 8 7 6
8 8 8 5 3 2 3 5 4 3 6 8 9 10 10 11 12 12 12 12 13 15 15 13 14 13 11 10 9 8 8 7 7 7 7 7 7 7 7 7 8 8 9 9 9 8 7 6 5
10 10 10 7 3 2 3 3 3 4 4 4 7 9 9 10 10 11 11 11 13 15 14 12 12 11 11 10 9 9 8 8 7 7 7 7 7 7 7 7 7 8 8 8 8 7 6 5 3
10 9 12 8 5 3 5 4 3 4 3 4 5 6 9 10 9 10 10 10 12 12 13 11 11 10 10 9 10 9 9 8 8 7 7 7 7 7 7 7 7 8 8 7 7 6 6 4 3
11 10 10 7 3 3 5 4 4 3 4 6 7 9 12 12 11 10 9 8 9 9 10 10 10 9 9 9 10 9 9 8 8 7 8 7 5 6 6 7 9 9 8 8 7 6 6 5 5
8 9 8 4 5 3 2 2 4 4 4 6 9 10 12 11 10 9 9 9 9 9 8 8 8 8 7 6 7 6 6 6 5 4 5 4 2 3 5 8 9 9 9 8 8 7 6 5 3
10 12 7 3 4 4 2 1 2 2 3 5 8 10 10 10 9 9 9 9 10 9 7 7 6 5 5 5 5 3 3 4 4 4 4 3 2 3 4 4 5 6 7 5 6 6 4 3 2
11 11 7 5 3 4 4 3 3 1 1 5 7 9 9 8 8 8 7 7 8 9 8 8 7 5 4 3 3 3 3 3 3 3 3 3 2 2 2 2 3 4 3 3 3 3 2 2 2
11 11 8 7 5 6 6 5 5 3 2 5 8 8 8 8 8 6 7 7 6 7 7 7 7 6 4 3 1 3 2 3 3 3 2 3 2 2 2 1 2 2 2 3 2 2 2 1 1
10 10 9 8 8 8 8 8 8 5 5 7 9 8 8 8 7 7 8 7 7 7 7 7 7 6 5 3 2 2 2 2 3 3 3 2 2 1 2 2 1 1 1 1 2 2 2 1 1
11 12 10 10 10 10 9 10 8 5 5 6 8 8 8 7 7 7 8 8 8 7 7 6 7 7 5 4 3 3 2 3 3 3 3 2 2 2 2 2 2 2 2 2 1 1 2 1 1
12 12 12 12 10 10 10 10 6 7 8 8 6 6 6 6 5 5 6 7 7 7 7 6 6 7 6 4 2 1 1 2 3 3 3 3 3 2 2 2 2 2 2 2 2 1 1 1 1
12 12 13 11 10 10 11 8 5 7 8 8 8 7 7 7 6 6 7 7 7 6 6 6 5 6 5 5 3 2 1 1 2 2 2 3 3 3 2 2 2 2 2 2 2 2 1 1 1
11 12 12 11 8 10 11 8 7 7 8 7 7 7 7 6 6 7 7 7 7 7 6 6 5 5 5 4 3 2 2 2 2 2 2 3 3 3 2 2 2 2 2 2 1 2 1 1 1
14 11 12 10 9 10 10 9 7 5 5 5 5 5 6 5 6 6 7 7 7 6 6 6 5 5 4 4 3 3 3 2 2 2 3 3 3 3 2 2 2 2 2 2 3 2 2 1 1
15 13 14 11 8 8 9 8 5 4 5 3 4 5 5 6 6 7 6 6 7 6 6 6 6 5 4 3 2 3 3 2 2 2 3 3 3 3 3 3 2 2 2 2 2 2 1 2 2
14 13 14 12 10 11 11 11 7 6 5 4 5 4 4 5 6 6 6 6 6 6 5 5 5 5 5 4 3 2 2 1 2 3 3 3 3 4 2 4 3 2 2 3 3 3 2 2 1
13 13 13 14 13 11 12 11 7 6 6 6 4 3 3 4 5 5 5 5 5 5 5 5 5 5 4 3 3 4 3 3 3 2 3 3 4 4 3 3 3 3 2 3 4 3 2 2 1
13 13 13 15 15 15 14 11 6 7 6 6 6 5 3 3 4 4 4 5 5 5 5 5 5 5 5 4 3 3 3 3 2 3 3 3 4 4 3 3 3 2 2 3 3 3 2 2 2
11 13 13 14 13 15 14 12 8 6 6 6 5 4 5 4 4 3 2 3 4 4 5 5 6 5 4 4 3 3 3 3 3 3 3 2 2 3 4 3 3 2 2 2 2 2 2 2 1
11 10 8 10 10 11 9 9 3 3 4 5 5 5 6 5 5 5 3 3 3 4 4 5 5 5 4 4 3 3 3 2 3 3 3 3 2 3 4 3 3 2 2 2 2 2 2 2 2
11 12 10 10 10 8 8 6 3 3 4 6 4 4 6 5 5 5 4 4 4 3 3 4 5 4 4 3 2 2 2 2 2 2 2 3 2 3 4 3 3 3 3 3 3 2 2 2 2
13 12 13 13 15 12 6 3 4 5 6 5 4 4 4 4 4 4 4 3 3 4 3 4 4 4 3 3 2 2 2 2 2 2 2 2 1 2 4 4 3 3 3 3 2 2 2 2 2
14 12 8 9 10 11 9 4 4 7 6 4 2 4 4 4 3 4 4 3 3 3 4 4 4 3 3 3 2 2 2 2 1 2 2 2 2 2 3 3 4 3 3 3 3 2 2 2 3
9 11 9 7 8 9 9 3 2 6 6 5 4 3 4 4 4 4 3 3 3 3 3 3 3 3 2 2 2 2 2 2 1 1 2 2 1 2 3 3 3 4 3 3 3 3 4 4 3
9 9 8 7 8 8 8 2 5 5 5 5 5 5 5 4 4 4 3 2 3 2 2 3 3 3 2 2 3 2 2 2 2 2 1 2 2 2 3 3 3 3 3 3 3 3 3 3 3
Wind_Direction
247 247 235 251 245 246 259 55 62 55 70 67 61 58 60 51 59 82 102 101 106 113 119 118 113 112 112 112 109 106 102 99 97 96 95 92 89 88 88 90 94 99 103 105 104 104 103 101 100
265 259 245 244 255 258 67 69 66 57 64 81 78 71 73 70 80 100 103 103 108 114 120 117 117 115 114 115 113 111 109 105 103 103 101 98 94 92 91 93 97 102 105 107 108 107 106 106 106
265 259 261 244 246 237 95 80 84 82 77 82 79 66 65 77 89 101 111 111 111 113 114 118 122 119 118 119 119 117 115 113 111 110 106 102 99 97 96 96 100 104 107 108 110 110 109 111 112
263 243 234 247 243 195 101 104 98 96 100 94 92 88 78 77 95 107 118 115 116 119 118 123 125 123 122 123 123 122 120 118 116 114 111 107 103 101 101 100 102 106 108 108 109 110 111 113 115
245 255 247 256 248 104 107 114 103 126 97 94 92 95 92 90 100 112 121 120 121 119 122 133 133 130 130 130 128 126 124 122 120 118 117 114 111 108 106 105 106 109 110 110 110 111 113 114 115
255 256 260 251 237 168 134 124 135 116 97 107 111 110 102 110 117 127 128 126 122 121 124 133 137 136 137 136 132 131 128 127 125 123 124 120 119 119 115 113 113 112 114 115 115 114 115 117 119
259 273 274 264 235 181 113 91 94 90 89 99 103 105 113 118 122 129 130 129 125 125 128 138 143 143 143 142 139 139 138 137 137 136 135 134 133 131 129 125 125 122 120 122 124 125 125 132 140
261 278 280 265 239 160 115 104 95 97 101 89 96 110 127 129 135 129 127 126 123 127 131 139 144 148 152 148 148 146 145 150 152 152 152 152 152 149 148 142 138 135 133 134 135 138 143 152 174
258 262 270 281 283 126 119 139 132 134 108 89 77 92 126 136 139 136 135 132 128 126 129 142 145 153 158 153 150 155 157 161 162 167 172 174 176 163 159 149 147 149 150 153 154 157 164 175 198
238 260 269 320 349 12 127 157 161 168 153 125 109 113 127 140 144 151 152 148 140 137 139 142 144 150 153 147 144 162 166 163 180 167 176 191 170 148 141 149 157 162 163 167 174 176 185 204 204
234 254 277 304 316 323 330 299 235 227 171 135 135 142 147 156 157 162 164 156 147 144 140 131 137 139 137 134 147 163 157 157 177 168 173 167 156 149 144 151 161 169 175 180 174 190 205 203 198
245 259 273 283 297 289 278 276 276 256 144 120 132 145 157 169 170 167 157 148 144 146 147 142 139 133 126 127 147 148 146 151 159 156 163 159 163 160 157 161 162 172 173 170 179 195 196 201 191
240 254 255 259 263 269 265 257 254 222 151 142 150 160 174 185 172 165 150 144 143 139 140 135 131 125 121 116 133 134 137 141 141 142 159 142 151 158 149 146 158 174 165 164 167 174 173 182 163
264 260 257 249 246 248 255 248 240 209 176 176 171 175 185 189 171 163 149 150 148 143 141 138 139 136 137 138 139 126 137 127 135 134 132 144 137 132 140 148 150 156 128 125 147 154 151 149 131
261 263 255 249 244 238 243 246 234 197 185 198 185 180 180 181 172 163 150 148 146 143 141 143 147 140 144 152 166 150 147 145 140 129 131 140 141 147 141 152 174 171 147 137 134 157 129 160 146
252 254 253 247 239 234 233 248 228 190 194 202 198 189 168 161 164 142 141 138 139 145 141 152 153 142 146 144 140 131 141 131 126 128 141 156 152 159 165 169 180 181 163 147 153 162 136 128 119
251 250 251 245 230 230 230 237 222 200 201 200 196 195 180 167 164 151 151 137 138 138 140 151 145 143 148 146 151 148 122 115 122 128 144 159 163 171 173 161 166 183 160 157 176 141 144 142 151
244 246 250 246 226 235 238 230 213 215 209 203 198 187 184 183 173 156 147 141 140 145 146 149 153 149 151 152 159 158 150 157 146 145 147 154 168 176 169 156 166 172 156 157 145 123 129 157 189
261 266 269 266 246 236 241 240 223 212 221 208 203 194 187 180 161 142 144 147 144 142 150 157 165 161 161 164 168 171 178 180 165 162 149 155 168 175 169 152 171 176 160 168 168 149 179 184 176
260 265 268 264 258 260 258 251 228 213 222 220 207 197 183 168 157 146 144 143 146 146 151 160 166 166 171 171 174 178 173 178 170 160 151 162 170 177 180 158 182 180 157 161 166 160 181 198 176
261 264 267 272 273 267 265 254 235 219 211 201 208 194 171 167 146 145 148 146 147 149 155 160 157 162 175 176 182 179 170 176 180 172 161 171 176 179 177 163 181 183 171 165 177 177 191 206 206
263 267 273 276 271 267 259 262 234 208 191 190 185 179 182 164 147 144 146 147 149 150 150 147 144 150 158 165 188 189 188 194 193 182 171 176 175 170 174 168 173 183 177 161 187 181 201 189 207
267 276 274 272 269 269 262 260 249 217 206 187 177 172 165 158 143 138 147 146 143 144 147 151 145 152 158 173 188 200 208 200 192 175 173 178 170 171 169 164 169 178 175 172 190 159 187 190 198
268 272 270 266 264 259 260 256 243 213 199 172 165 166 157 158 140 133 151 131 135 136 137 144 149 154 162 174 185 197 213 207 186 172 162 171 168 169 173 171 163 172 172 174 169 179 192 200 213
254 259 261 257 248 255 264 256 230 183 194 157 156 170 156 155 151 150 167 146 139 138 137 133 143 156 164 174 186 205 214 206 175 166 168 178 176 173 173 171 172 167 169 171 167 192 210 211 213
245 247 251 264 268 263 246 240 154 128 113 100 112 128 140 158 148 152 156 151 155 140 133 140 142 148 153 161 171 185 181 189 172 172 182 184 182 173 160 163 168 167 174 172 174 187 202 208 228
253 247 257 264 275 280 267 183 138 120 117 127 149 141 120 119 129 135 122 128 143 136 129 134 142 147 155 162 159 161 169 186 178 170 183 164 160 166 152 163 168 174 176 169 174 181 205 190 210
252 258 261 260 271 279 276 244 181 164 159 152 166 135 113 121 127 122 126 124 117 127 128 131 138 151 158 164 172 166 164 177 174 175 162 156 161 151 155 167 170 175 177 176 179 186 200 196 210
256 254 258 266 263 271 278 284 96 158 152 165 172 150 126 120 119 108 110 124 120 126 127 131 140 147 159 168 165 151 165 169 157 145 138 147 153 158 168 174 173 175 180 180 189 202 197 205 209
268 268 262 256 261 265 272 263 101 118 141 150 147 126 112 103 106 105 102 104 109 114 129 136 138 148 160 172 170 159 154 148 148 157 157 149 167 179 172 178 175 182 181 182 191 206 198 199 203